Temperature
-2 -2 -2 -2 -2 -2 -2 -1 -1 -1 -1 -1 -1 -0 0 0 1 1 1 1 1 2 2 2 2 2 2 2 2 2 2 2 2 3 3 3 3 4 4 3 4 4 4
-2 -2 -2 -2 -2 -2 -2 -1 -1 -1 -1 -1 -1 -1 -1 -0 -0 0 0 1 1 1 1 1 1 1 1 2 2 2 2 2 2 2 2 3 3 3 3 3 3 3 3
-3 -3 -2 -2 -2 -2 -2 -2 -2 -2 -2 -1 -1 -1 -1 -1 -1 -0 -0 0 0 0 0 1 1 1 1 1 1 1 1 1 1 2 2 2 2 2 2 2 2 3 3
-3 -3 -3 -3 -2 -2 -2 -2 -2 -2 -2 -2 -2 -2 -1 -1 -1 -1 -1 -0 -0 -0 -0 -0 -0 0 0 0 0 0 0 0 1 1 1 2 2 2 2 2 2 2 2
-3 -3 -3 -3 -3 -3 -2 -2 -2 -2 -2 -2 -2 -2 -2 -2 -1 -1 -1 -1 -1 -1 -1 -1 -0 -0 -0 -0 -0 -0 -0 -0 0 0 1 1 1 1 1 1 1 1 2
-3 -3 -3 -3 -3 -3 -3 -2 -2 -2 -2 -2 -2 -2 -2 -2 -2 -2 -2 -2 -2 -1 -1 -1 -1 -1 -1 -1 -1 -1 -1 -1 -1 -0 -0 0 0 0 0 0 0 0 0
-4 -4 -4 -3 -3 -3 -3 -3 -3 -2 -2 -2 -2 -2 -2 -2 -2 -2 -2 -2 -2 -2 -2 -2 -1 -1 -1 -1 -1 -1 -1 -1 -1 -1 -1 -0 -0 -0 -0 -0 -1 -1 -0
-4 -4 -4 -4 -4 -4 -4 -3 -3 -3 -3 -3 -3 -3 -3 -2 -2 -2 -3 -3 -3 -2 -2 -2 -2 -2 -2 -2 -2 -2 -2 -2 -1 -1 -1 -1 -1 -1 -1 -1 -1 -1 -1
-5 -5 -5 -5 -4 -4 -4 -4 -4 -4 -3 -3 -3 -3 -3 -3 -3 -3 -3 -3 -3 -3 -3 -3 -3 -3 -3 -3 -3 -3 -3 -2 -2 -2 -2 -2 -2 -2 -2 -2 -2 -2 -2
-6 -5 -5 -5 -5 -5 -5 -5 -4 -4 -4 -4 -4 -4 -4 -4 -4 -4 -3 -3 -3 -3 -3 -3 -3 -3 -3 -3 -3 -3 -3 -3 -3 -3 -3 -3 -2 -2 -2 -2 -2 -3 -3
-6 -6 -6 -5 -5 -5 -5 -5 -5 -5 -5 -5 -5 -5 -4 -4 -4 -4 -4 -4 -4 -4 -4 -4 -4 -4 -4 -4 -4 -4 -3 -3 -3 -3 -3 -3 -3 -3 -3 -3 -3 -3 -3
-7 -6 -6 -6 -6 -6 -6 -6 -6 -6 -6 -5 -5 -5 -5 -5 -5 -5 -5 -4 -4 -4 -4 -4 -4 -4 -4 -4 -4 -4 -4 -4 -4 -4 -4 -4 -4 -3 -3 -4 -4 -4 -4
-7 -7 -7 -7 -7 -7 -7 -7 -6 -6 -6 -6 -6 -6 -6 -6 -6 -5 -5 -5 -5 -5 -5 -5 -5 -5 -5 -5 -5 -5 -5 -4 -4 -4 -4 -4 -4 -4 -4 -4 -4 -4 -4
-8 -7 -7 -7 -7 -7 -7 -7 -7 -7 -7 -7 -7 -7 -7 -7 -6 -6 -6 -6 -6 -6 -5 -5 -5 -5 -5 -5 -5 -5 -5 -5 -5 -5 -5 -5 -5 -5 -5 -5 -5 -5 -5
-8 -8 -8 -8 -8 -8 -8 -8 -8 -8 -8 -8 -8 -8 -8 -7 -7 -7 -6 -6 -6 -6 -6 -6 -6 -6 -6 -6 -6 -6 -6 -6 -6 -6 -6 -6 -6 -6 -6 -6 -6 -6 -6
-9 -9 -9 -9 -9 -9 -9 -8 -9 -9 -8 -8 -8 -8 -8 -8 -8 -7 -7 -7 -7 -7 -6 -6 -6 -6 -6 -6 -6 -6 -6 -6 -6 -6 -6 -6 -6 -6 -6 -6 -6 -6 -6
-10 -10 -10 -10 -9 -9 -9 -9 -9 -9 -9 -9 -9 -9 -9 -8 -8 -8 -8 -7 -7 -7 -7 -7 -7 -7 -7 -7 -7 -7 -7 -7 -7 -7 -7 -7 -7 -7 -7 -7 -7 -7 -7
-10 -10 -10 -10 -10 -10 -10 -10 -10 -10 -9 -9 -9 -9 -9 -9 -9 -8 -8 -8 -8 -8 -8 -8 -8 -8 -8 -8 -8 -8 -8 -8 -8 -8 -8 -8 -8 -8 -8 -8 -8 -8 -8
-11 -11 -11 -10 -11 -11 -10 -10 -10 -10 -10 -10 -10 -9 -9 -9 -9 -9 -9 -9 -9 -9 -9 -9 -9 -9 -9 -9 -9 -9 -9 -9 -8 -8 -8 -8 -8 -8 -8 -8 -8 -8 -8
-11 -11 -11 -11 -11 -11 -11 -11 -11 -11 -11 -11 -11 -10 -10 -10 -10 -10 -10 -10 -10 -10 -10 -10 -10 -10 -10 -9 -9 -9 -9 -9 -9 -9 -9 -9 -9 -9 -9 -9 -9 -9 -9
-11 -12 -12 -11 -11 -12 -12 -11 -11 -11 -11 -11 -11 -11 -11 -11 -11 -11 -10 -10 -10 -10 -10 -10 -10 -10 -10 -10 -10 -10 -10 -10 -10 -10 -10 -10 -10 -10 -10 -9 -9 -9 -9
-12 -12 -12 -12 -12 -12 -12 -12 -12 -12 -12 -12 -12 -12 -12 -11 -11 -11 -11 -11 -11 -11 -11 -11 -11 -11 -11 -11 -11 -10 -10 -10 -10 -10 -10 -10 -10 -10 -10 -10 -10 -10 -10
-13 -13 -13 -13 -13 -13 -12 -12 -12 -12 -12 -12 -12 -12 -12 -12 -12 -12 -12 -12 -11 -11 -11 -11 -11 -11 -11 -11 -11 -11 -11 -11 -11 -11 -11 -10 -11 -11 -11 -10 -10 -10 -10
-13 -13 -13 -13 -13 -13 -13 -13 -13 -13 -13 -13 -13 -13 -13 -13 -12 -12 -12 -12 -12 -12 -12 -12 -12 -12 -11 -11 -11 -11 -11 -11 -11 -11 -11 -11 -11 -11 -11 -11 -11 -11 -10
-13 -13 -13 -13 -13 -13 -13 -13 -13 -13 -13 -13 -13 -13 -13 -13 -13 -13 -13 -12 -12 -12 -12 -12 -12 -12 -12 -12 -12 -12 -11 -11 -11 -11 -11 -11 -11 -11 -11 -11 -11 -11 -11
-14 -14 -14 -14 -14 -14 -14 -14 -14 -14 -14 -14 -14 -14 -14 -13 -13 -13 -13 -13 -13 -13 -12 -12 -12 -12 -12 -12 -12 -12 -12 -12 -12 -12 -12 -12 -12 -12 -12 -12 -12 -11 -11
Wind_Speed
5 4 4 5 5 5 6 6 5 5 5 5 5 5 6 7 7 6 7 6 7 6 6 7 6 5 5 4 4 4 3 3 5 3 2 2 3 3 3 3 4 5 6
4 4 4 4 4 6 6 6 6 6 6 6 6 6 7 7 7 8 8 8 8 8 8 8 7 6 6 5 5 4 4 4 4 5 3 2 3 4 3 3 3 4 5
4 4 4 4 5 5 6 5 5 6 6 6 6 7 7 8 8 8 9 8 9 9 9 9 9 8 8 6 6 5 4 4 4 4 4 2 2 3 2 2 2 3 4
4 4 4 5 5 5 5 5 5 6 6 7 7 7 8 8 8 9 9 9 9 8 9 9 9 9 9 8 7 7 5 5 4 4 3 3 2 3 3 3 2 2 2
4 4 5 5 4 4 4 4 5 6 6 6 7 7 7 7 8 10 10 10 9 8 8 9 9 10 11 9 7 7 6 6 5 4 4 3 3 4 4 3 3 2 2
4 4 5 4 4 4 4 4 4 5 5 5 6 7 7 7 10 12 11 9 9 9 9 9 9 10 11 11 11 10 9 8 7 6 5 6 5 5 4 4 3 2 3
5 4 4 4 4 4 4 4 4 4 4 5 5 5 6 7 10 11 12 8 8 9 9 8 8 8 10 8 9 10 9 10 9 7 7 7 6 6 6 5 5 4 4
5 5 5 4 5 5 4 4 4 3 3 3 4 4 4 6 8 9 10 7 7 8 9 9 9 8 9 9 8 7 7 7 8 7 7 7 6 6 6 5 5 3 2
6 6 5 5 5 5 5 4 4 3 3 3 3 3 3 5 7 7 8 5 6 7 7 7 8 8 10 11 9 8 7 6 7 8 8 8 7 7 6 3 3 3 3
7 7 6 5 4 4 5 4 4 3 3 3 3 3 3 3 5 6 5 4 5 5 5 6 8 9 10 11 9 9 8 7 5 5 5 6 5 6 7 5 5 4 2
7 7 6 6 5 4 4 4 4 4 3 3 3 3 3 3 3 4 4 3 4 4 4 4 5 8 9 10 9 8 9 7 5 5 5 4 3 3 4 4 4 4 4
7 7 7 7 5 5 4 4 4 3 3 3 3 4 3 3 3 3 3 3 4 3 3 3 4 7 8 8 8 8 9 7 4 4 4 4 4 4 3 4 4 4 4
8 8 7 7 6 6 5 4 4 3 3 3 3 3 4 4 3 4 3 3 3 2 2 3 4 6 6 5 6 7 5 5 5 5 5 4 3 3 3 2 2 2 2
7 7 7 7 7 6 5 4 4 3 3 3 3 3 3 3 3 2 2 2 2 1 1 1 2 2 3 3 3 3 3 3 4 4 4 3 2 3 3 3 2 2 2
7 7 7 6 6 6 6 5 5 4 4 4 3 2 3 3 4 4 2 1 1 1 1 1 1 1 1 1 1 1 1 2 3 3 3 3 3 3 3 2 2 2 3
6 6 5 5 5 5 5 6 8 7 8 9 8 6 4 6 7 6 4 3 2 0 0 1 1 1 1 1 2 2 2 2 2 2 3 3 3 3 3 2 2 2 3
6 5 4 4 4 4 5 5 6 7 9 9 10 9 8 8 7 7 5 4 4 2 2 1 1 1 1 1 1 2 2 2 2 2 2 2 3 3 3 3 3 3 3
6 6 6 4 4 4 4 4 4 5 6 6 8 10 10 9 9 8 7 5 4 4 2 1 1 1 0 1 1 1 1 1 2 2 2 2 2 3 3 3 3 3 3
5 4 4 4 4 4 4 4 4 4 4 5 5 7 10 10 10 10 8 5 3 3 2 1 1 0 0 0 1 1 1 2 2 2 2 3 3 3 3 3 3 4 4
5 7 7 5 4 4 4 4 4 4 4 4 5 6 6 6 6 6 6 4 4 3 2 2 1 1 0 0 1 1 1 2 2 2 3 3 3 3 4 4 3 3 3
4 5 7 5 4 4 4 4 4 4 4 4 4 6 8 5 5 5 4 4 3 3 2 2 1 1 1 1 1 1 1 2 2 3 3 3 3 3 3 3 3 3 3
3 4 4 4 4 4 4 4 4 4 4 4 5 5 8 5 4 4 4 4 3 3 2 2 2 1 1 1 1 1 2 2 2 3 3 3 3 3 3 4 3 3 3
3 4 4 4 4 5 5 4 4 4 4 4 4 5 5 4 4 4 4 4 4 3 3 2 2 2 2 2 2 2 2 3 3 3 4 4 4 4 4 4 4 4 4
3 3 4 4 4 4 4 4 4 4 5 5 5 4 4 4 4 5 5 4 4 4 4 3 3 3 4 4 4 3 3 4 4 4 5 4 4 4 4 4 4 4 4
3 3 3 3 4 4 4 4 4 4 5 5 5 5 5 5 5 5 5 4 4 4 5 5 4 4 5 5 5 5 6 6 6 5 5 4 5 5 5 5 5 4 4
3 3 3 3 3 3 4 4 4 5 5 5 5 5 5 5 5 5 5 5 5 5 5 5 6 7 7 6 7 8 8 8 8 7 5 4 4 4 4 4 5 5 4
Wind_Direction
274 265 261 251 245 242 240 233 231 233 233 230 227 227 225 221 211 213 217 212 210 214 211 204 210 204 206 208 201 200 211 210 228 249 233 227 211 216 255 252 240 236 238
280 271 265 263 252 247 242 238 232 233 233 234 231 232 230 221 215 215 218 213 211 212 209 204 209 205 210 210 204 208 212 213 216 236 247 219 225 212 216 235 257 242 240
295 283 276 272 263 252 247 243 237 235 237 236 233 234 232 226 220 221 221 219 216 214 209 206 207 201 212 212 209 211 215 219 214 220 240 225 231 213 205 235 255 259 250
301 289 279 277 272 269 260 246 241 239 238 237 237 237 235 230 225 224 222 220 219 217 213 209 207 205 210 211 212 213 212 214 215 215 235 222 217 210 198 214 244 237 256
301 291 285 285 286 285 273 256 246 240 242 240 239 242 239 232 226 223 222 220 217 218 217 213 211 211 214 214 215 209 204 206 208 216 227 219 214 206 212 211 240 250 262
308 303 307 310 305 296 285 271 255 248 248 243 243 244 242 242 238 233 227 220 216 216 219 216 216 216 220 223 226 222 212 205 207 209 222 219 215 212 209 212 221 240 249
320 318 320 316 312 309 304 295 278 266 257 253 248 242 245 249 245 238 233 223 216 215 217 217 220 218 217 212 223 228 229 229 221 208 216 219 210 205 199 206 215 226 244
332 330 325 322 316 315 309 299 294 285 276 269 263 253 254 263 259 249 239 226 219 220 217 213 213 214 212 204 203 212 221 228 230 224 217 219 215 211 208 210 213 221 277
335 331 328 325 321 320 315 311 306 301 295 283 273 266 263 280 279 262 241 214 215 219 221 217 214 212 216 210 206 210 218 229 235 230 231 232 224 218 211 185 186 207 255
332 329 330 329 323 319 314 314 315 315 308 300 300 293 277 279 284 277 245 214 217 218 219 219 222 218 216 213 207 204 213 219 211 217 231 237 226 218 214 208 199 208 231
333 335 336 336 330 323 325 327 330 333 337 337 331 328 316 297 290 282 254 221 216 214 216 216 215 219 221 219 215 210 216 211 200 206 209 203 204 208 214 221 218 212 217
343 345 345 344 342 344 348 346 348 350 349 350 354 349 345 335 326 299 266 245 227 206 214 219 216 220 223 224 222 220 224 219 202 198 195 198 200 207 213 218 229 236 239
352 352 351 351 355 357 356 351 353 359 356 350 352 347 344 348 342 328 308 282 248 222 213 206 221 221 219 223 223 226 226 212 199 196 199 206 202 196 190 202 229 248 280
352 350 352 357 359 2 1 359 1 357 353 349 347 341 339 341 338 332 320 291 276 265 255 218 221 223 214 212 227 239 232 211 197 198 195 191 173 180 195 199 207 212 239
353 352 355 359 359 1 3 4 0 359 352 349 343 329 334 334 332 332 332 297 247 215 162 90 113 151 174 190 195 200 209 194 196 187 186 189 192 196 205 196 203 213 231
355 356 355 355 358 1 2 1 4 4 3 6 7 1 347 350 349 350 352 3 8 50 120 130 145 159 186 204 210 213 207 195 195 195 191 192 195 198 205 207 213 216 229
353 350 350 352 353 356 359 1 357 0 8 14 13 11 10 7 7 5 6 18 22 34 72 98 125 161 180 187 200 204 212 208 193 191 196 196 198 200 201 209 216 221 234
351 352 352 348 347 351 354 352 353 358 360 359 359 5 9 12 15 16 17 21 20 26 48 72 83 93 152 191 205 215 212 191 181 183 187 190 193 195 202 213 218 220 230
350 349 347 346 348 352 352 351 354 359 359 353 355 0 5 10 16 17 18 26 25 26 27 34 47 64 56 239 221 213 209 204 198 193 195 198 200 201 211 219 224 237 239
348 350 352 349 351 354 354 356 358 358 357 357 358 354 352 2 10 9 14 21 24 22 17 11 9 8 323 286 269 228 212 212 211 211 212 211 211 209 215 220 223 231 237
342 344 351 352 352 348 348 352 353 354 352 350 349 348 356 4 3 1 5 7 4 359 355 350 346 345 331 298 282 252 231 224 216 217 220 220 216 217 224 227 227 230 234
337 340 344 345 343 346 347 347 350 352 351 347 344 346 355 3 360 355 352 350 346 338 332 330 330 321 303 280 274 256 243 240 230 221 223 222 220 220 222 223 227 231 233
341 342 344 344 344 347 352 353 352 348 345 343 342 344 349 352 350 346 342 338 337 335 331 329 321 318 320 308 285 254 244 247 240 231 226 222 220 220 218 220 222 225 232
344 343 344 343 342 343 342 343 343 342 341 339 338 338 339 338 336 335 334 332 332 331 331 323 307 298 298 298 294 283 272 266 255 238 225 220 222 225 221 222 226 228 229
347 343 339 336 335 335 335 335 333 332 332 332 332 331 331 331 330 330 329 329 327 326 324 321 314 304 298 297 297 293 292 287 277 253 225 220 224 224 223 224 226 229 230
343 340 335 332 330 329 326 324 323 321 320 320 321 321 322 322 322 322 322 323 322 318 314 312 309 306 303 297 293 293 292 288 282 270 244 225 221 227 226 229 229 229 228
Height
1448 1447 1447 1447 1448 1448 1449 1450 1451 1452 1454 1455 1457 1458 1460 1462 1464 1466 1468 1470 1473 1475 1477 1480 1482 1485 1487 1489 1491 1493 1495 1497 1497 1499 1502 1504 1506 1507 1509 1511 1512 1514 1515
1444 1443 1443 1443 1444 1444 1444 1445 1446 1447 1449 1450 1452 1453 1455 1456 1458 1460 1462 1464 1467 1469 1471 1474 1477 1479 1482 1484 1486 1488 1490 1492 1494 1494 1496 1499 1500 1502 1504 1506 1507 1509 1510
1440 1439 1439 1439 1439 1439 1439 1440 1441 1442 1444 1445 1446 1448 1449 1451 1453 1454 1457 1458 1461 1463 1466 1468 1471 1473 1476 1478 1480 1483 1485 1487 1489 1490 1491 1493 1495 1497 1498 1500 1502 1503 1504
1436 1435 1435 1435 1435 1435 1435 1436 1437 1438 1439 1440 1441 1443 1444 1445 1447 1449 1451 1453 1455 1458 1460 1462 1465 1468 1470 1473 1475 1477 1479 1482 1483 1485 1486 1488 1490 1491 1493 1494 1495 1497 1498
1433 1432 1431 1431 1430 1430 1431 1431 1432 1433 1434 1435 1436 1437 1439 1440 1442 1443 1445 1447 1449 1451 1454 1456 1459 1462 1464 1467 1469 1471 1473 1475 1477 1479 1480 1482 1484 1486 1487 1488 1490 1491 1492
1430 1429 1428 1427 1427 1427 1427 1427 1428 1429 1429 1430 1431 1432 1433 1434 1435 1437 1439 1440 1442 1445 1447 1450 1453 1455 1458 1461 1463 1465 1467 1469 1471 1473 1474 1476 1477 1480 1482 1483 1484 1485 1486
1428 1427 1426 1425 1424 1424 1424 1424 1424 1424 1425 1426 1426 1427 1427 1428 1430 1431 1433 1435 1436 1438 1441 1444 1446 1449 1452 1454 1457 1459 1461 1463 1465 1467 1468 1470 1472 1474 1477 1478 1479 1480 1481
1425 1424 1423 1422 1421 1421 1421 1420 1420 1420 1420 1420 1421 1421 1422 1423 1424 1425 1426 1428 1430 1433 1435 1437 1440 1442 1445 1448 1450 1452 1454 1457 1459 1461 1463 1465 1468 1469 1471 1473 1474 1475 1477
1424 1423 1422 1420 1419 1419 1418 1417 1417 1416 1416 1416 1416 1416 1416 1417 1418 1419 1420 1422 1424 1427 1430 1432 1434 1436 1439 1441 1444 1446 1448 1451 1454 1456 1458 1460 1462 1464 1466 1467 1468 1470 1470
1423 1421 1420 1419 1418 1416 1415 1415 1414 1413 1412 1412 1412 1412 1412 1412 1413 1414 1415 1417 1419 1422 1424 1426 1428 1431 1433 1436 1438 1440 1442 1445 1448 1450 1452 1453 1455 1457 1459 1461 1462 1464 1464
1422 1421 1419 1417 1416 1415 1414 1413 1412 1411 1409 1408 1408 1408 1408 1409 1409 1410 1411 1413 1415 1417 1419 1421 1423 1426 1428 1430 1433 1435 1437 1440 1442 1444 1446 1447 1449 1451 1453 1455 1457 1458 1459
1422 1420 1418 1416 1415 1413 1412 1411 1410 1408 1407 1406 1406 1406 1406 1406 1406 1407 1409 1410 1412 1413 1414 1416 1419 1421 1423 1425 1428 1430 1432 1435 1437 1438 1440 1441 1443 1445 1447 1449 1451 1453 1454
1421 1419 1417 1415 1414 1412 1411 1409 1408 1407 1406 1405 1404 1404 1404 1404 1405 1405 1406 1407 1408 1409 1410 1412 1414 1417 1418 1420 1423 1425 1427 1429 1430 1432 1433 1435 1437 1440 1442 1444 1446 1447 1448
1420 1418 1416 1414 1413 1412 1410 1409 1408 1406 1405 1404 1404 1403 1403 1403 1403 1403 1403 1404 1405 1405 1406 1408 1410 1412 1414 1416 1418 1420 1422 1423 1425 1426 1428 1430 1433 1435 1437 1438 1440 1441 1442
1420 1418 1416 1414 1413 1411 1410 1409 1407 1407 1406 1405 1404 1403 1402 1401 1402 1403 1402 1402 1402 1403 1404 1404 1406 1408 1410 1411 1413 1415 1417 1419 1420 1422 1424 1426 1428 1430 1432 1433 1435 1436 1436
1420 1418 1416 1415 1413 1411 1410 1409 1408 1407 1406 1405 1404 1403 1402 1401 1401 1401 1400 1400 1400 1401 1401 1401 1403 1404 1406 1407 1409 1411 1413 1414 1416 1418 1420 1421 1423 1425 1427 1428 1429 1430 1431
1421 1419 1417 1416 1414 1412 1410 1408 1407 1407 1406 1404 1403 1402 1401 1400 1399 1398 1398 1398 1398 1398 1398 1398 1400 1402 1403 1404 1406 1408 1409 1411 1413 1415 1416 1418 1419 1421 1422 1423 1424 1425 1426
1421 1420 1418 1416 1414 1412 1411 1409 1408 1406 1404 1403 1403 1402 1401 1399 1398 1398 1397 1396 1395 1395 1396 1397 1398 1400 1401 1403 1404 1405 1407 1408 1410 1411 1412 1414 1415 1417 1418 1419 1420 1421 1422
1421 1420 1418 1416 1415 1413 1411 1410 1408 1406 1405 1403 1402 1401 1400 1399 1398 1397 1396 1395 1394 1394 1395 1396 1397 1398 1400 1401 1402 1403 1404 1405 1406 1407 1409 1410 1411 1413 1414 1415 1416 1417 1418
1421 1420 1418 1416 1415 1413 1412 1410 1408 1407 1405 1403 1402 1401 1400 1399 1397 1396 1396 1395 1395 1394 1395 1395 1396 1397 1397 1398 1399 1400 1400 1401 1402 1403 1405 1406 1407 1409 1410 1411 1412 1413 1413
1421 1419 1418 1416 1415 1414 1412 1410 1409 1407 1406 1404 1403 1402 1401 1399 1398 1397 1396 1396 1395 1395 1395 1395 1395 1395 1395 1396 1396 1396 1397 1397 1398 1399 1400 1402 1403 1404 1405 1406 1407 1408 1409
1421 1419 1418 1416 1415 1414 1412 1411 1409 1407 1406 1404 1403 1402 1401 1399 1398 1397 1396 1396 1395 1395 1394 1394 1394 1393 1393 1393 1393 1393 1393 1394 1395 1395 1396 1397 1398 1399 1401 1402 1403 1403 1404
1420 1419 1417 1416 1414 1413 1412 1410 1409 1407 1405 1404 1402 1401 1400 1398 1397 1396 1395 1395 1394 1393 1393 1392 1392 1391 1391 1391 1391 1390 1390 1390 1391 1392 1392 1393 1394 1395 1396 1397 1398 1398 1399
1419 1418 1416 1415 1413 1412 1410 1409 1408 1406 1405 1403 1401 1400 1399 1397 1396 1395 1394 1393 1392 1391 1391 1390 1389 1389 1388 1388 1388 1387 1387 1387 1388 1388 1389 1389 1390 1391 1392 1392 1393 1394 1395
1418 1416 1415 1414 1412 1410 1409 1408 1406 1405 1404 1402 1401 1399 1398 1396 1395 1393 1392 1391 1390 1389 1388 1387 1387 1386 1385 1385 1384 1384 1384 1384 1384 1384 1385 1385 1386 1386 1387 1388 1388 1389 1390
1416 1415 1413 1412 1410 1409 1407 1406 1405 1403 1402 1400 1399 1398 1396 1394 1393 1391 1390 1389 1387 1386 1385 1384 1383 1382 1382 1381 1381 1380 1380 1380 1380 1381 1381 1381 1382 1382 1382 1383 1384 1384 1385